Theta_e
304 304 306 306 305 304 303 305 313 319 322 324 323 323 323 322 322 321 320 320 321 320 318 315 321 324 327 329 329 328 329 329 328 327 327 326 325 325 326 326 326 326 325 326 325
304 306 307 308 306 305 305 304 304 310 316 319 321 321 321 322 321 320 321 320 320 319 317 319 320 322 324 329 328 328 329 328 325 325 325 326 325 325 326 327 326 326 327 326 325
305 306 308 308 306 305 305 305 306 305 305 309 316 317 317 318 319 319 319 318 318 318 317 320 320 322 324 326 328 328 330 327 325 325 325 326 326 325 326 326 327 326 327 328 327
303 305 308 308 306 306 306 307 307 306 306 308 309 308 310 317 321 319 318 318 318 321 321 322 320 321 325 326 327 329 328 327 326 326 326 326 325 325 325 326 327 327 327 327 327
308 304 307 309 306 308 309 308 307 308 307 309 312 311 310 316 317 317 315 314 317 318 321 321 321 319 322 326 326 327 327 326 326 326 326 326 326 326 326 326 327 327 328 327 327
311 304 305 309 309 310 311 311 308 309 309 309 312 312 313 314 314 315 317 315 316 317 321 321 321 320 319 323 325 327 327 328 327 326 326 326 326 326 326 326 327 327 327 325 323
311 306 303 307 308 311 311 312 311 308 307 308 309 310 313 313 313 314 314 315 315 315 316 319 320 321 320 320 323 326 328 328 327 327 326 326 326 326 327 326 326 327 322 321 322
308 310 304 306 312 309 311 312 312 311 309 308 308 312 312 313 313 313 313 312 313 312 313 315 316 319 320 320 323 327 327 329 328 327 326 326 327 326 327 327 326 322 321 322 323
312 310 311 307 311 310 311 309 309 312 310 310 308 311 311 312 312 312 313 312 312 312 314 313 314 317 320 320 323 326 329 330 329 327 326 326 327 326 326 325 323 322 322 324 323
313 309 312 305 309 309 310 309 312 312 312 310 311 311 311 311 312 311 312 312 312 312 312 314 314 317 319 321 323 325 329 327 330 328 327 327 327 326 327 325 322 323 322 323 323
314 308 310 307 308 310 310 309 310 311 312 310 311 311 312 312 311 311 311 312 312 312 312 313 317 318 317 318 320 322 325 330 327 327 328 327 327 327 325 325 324 324 323 323 322
314 310 309 307 308 309 310 310 310 311 311 312 311 311 311 312 312 311 311 311 312 312 312 314 316 315 316 317 320 321 325 328 327 327 327 328 328 326 324 324 325 325 323 323 321
314 312 307 305 308 309 310 310 310 309 310 310 311 311 312 311 311 312 312 311 312 312 312 313 314 314 315 316 319 321 324 328 329 327 326 325 326 324 323 324 326 326 323 322 320
314 312 305 305 307 308 310 311 311 309 310 310 309 311 311 310 310 311 312 311 312 312 312 313 313 313 316 316 316 320 321 325 327 330 331 324 326 324 324 325 322 322 322 321 320
314 311 305 305 311 310 310 311 310 311 315 311 311 310 311 310 310 310 310 311 312 311 311 313 312 313 314 316 316 320 320 325 326 329 329 327 326 324 324 326 318 317 322 321 320
314 311 307 307 309 310 311 310 310 311 314 312 310 311 312 310 310 310 310 312 311 312 311 311 312 313 314 314 315 318 320 322 329 327 333 330 328 326 324 322 319 318 322 320 319
315 313 310 308 308 308 308 309 311 314 311 314 312 311 310 312 311 310 311 312 311 312 313 312 313 313 312 315 317 320 322 326 331 328 329 325 329 325 320 320 320 319 320 320 319
315 314 311 309 310 311 308 309 313 313 313 311 311 311 313 312 312 311 311 312 311 311 312 313 314 314 312 313 320 321 322 326 333 332 326 324 327 325 320 319 320 320 320 319 319
316 314 312 310 311 310 308 310 313 314 314 313 311 313 313 313 312 311 311 312 311 311 313 318 315 314 313 313 319 321 319 317 329 323 325 324 324 319 318 318 317 319 319 319 319
316 314 312 312 310 310 309 311 312 313 311 311 315 311 312 312 310 311 311 311 312 312 310 311 317 316 317 317 319 321 321 324 329 327 330 325 324 322 319 318 317 319 319 319 319
315 313 313 313 310 310 311 311 311 311 311 312 313 313 312 311 311 309 310 311 312 312 310 311 313 317 316 323 323 325 326 328 329 326 327 326 325 320 319 318 317 318 319 319 319
313 313 312 311 312 311 312 311 312 313 313 314 313 314 311 312 311 311 312 313 312 311 312 312 314 319 319 319 321 325 327 327 328 327 324 324 322 317 317 318 317 317 320 320 319
312 313 312 311 313 312 311 312 311 314 315 315 315 313 312 312 311 310 313 313 311 313 314 314 316 321 320 323 323 327 326 326 325 324 325 322 321 317 316 316 319 318 320 320 319
312 315 312 311 312 314 313 313 312 311 312 314 315 313 312 312 311 315 313 314 314 312 316 318 320 318 326 325 325 327 327 325 325 325 324 322 319 318 318 317 317 318 320 320 319
312 314 313 313 312 313 314 313 313 314 314 315 315 314 315 314 313 312 314 314 315 313 315 315 323 322 321 324 324 325 325 324 324 323 325 323 320 317 316 316 316 318 320 320 319
311 311 314 316 312 313 313 315 314 314 315 317 315 318 317 314 313 314 314 314 313 316 315 316 321 322 321 321 323 325 324 324 323 323 323 323 322 316 317 319 318 318 319 319 318
312 311 313 314 316 315 316 315 316 313 313 314 315 315 319 317 315 314 315 315 317 318 318 319 321 322 320 321 321 322 322 323 323 322 323 324 321 317 316 317 317 318 318 318 318
Wind_Speed
13 12 13 14 13 12 12 11 12 13 12 19 20 15 13 13 13 14 15 9 10 15 15 10 7 11 16 20 17 12 6 11 15 14 14 11 4 9 4 6 13 16 17 5 2
13 12 12 13 12 10 9 10 12 14 15 16 13 15 17 15 15 17 18 14 19 15 11 8 10 12 21 19 17 16 8 15 11 13 11 11 7 8 10 11 14 15 14 14 10
14 13 13 12 10 8 8 8 9 12 14 16 17 16 14 12 13 23 17 18 18 18 15 10 12 14 18 26 25 22 18 12 19 25 24 12 12 13 10 9 14 15 15 12 8
14 13 12 11 9 7 7 7 8 10 12 13 13 14 13 9 6 5 9 15 18 19 16 13 14 17 10 16 28 20 26 24 25 27 11 5 12 17 20 17 17 19 18 18 18
15 14 13 10 9 8 8 8 6 7 10 11 10 9 12 12 18 5 1 6 6 4 17 16 18 17 16 11 21 23 19 28 27 27 28 14 13 18 22 21 21 23 22 23 18
16 15 14 12 9 8 9 8 8 8 7 10 11 9 12 16 11 16 12 9 4 3 10 17 17 18 22 21 19 13 27 26 27 26 23 18 13 21 22 18 23 24 20 16 17
18 16 16 14 12 9 8 8 9 10 8 9 12 12 13 18 6 13 17 17 14 10 10 11 19 19 10 15 17 25 16 16 25 26 17 24 19 17 25 26 26 26 17 15 11
16 16 15 15 13 11 8 9 9 9 10 11 9 8 10 12 19 12 9 11 21 16 16 16 11 16 23 13 13 7 11 14 19 16 24 16 15 11 26 29 24 12 8 7 8
16 16 15 13 14 12 10 10 11 9 12 11 8 9 9 11 21 22 19 13 9 9 9 15 15 16 13 11 7 10 13 22 15 18 16 15 17 11 31 17 12 11 15 13 9
15 15 17 14 13 13 12 10 9 11 11 7 10 5 16 14 11 15 21 22 18 15 12 11 11 10 11 12 17 12 12 13 18 17 18 22 15 13 24 19 17 13 15 13 11
14 15 17 15 13 13 13 10 8 4 17 13 9 12 2 9 7 12 16 17 17 16 14 16 8 18 21 21 18 18 19 16 16 16 18 18 18 15 19 20 14 15 9 13 12
14 14 16 14 12 14 13 9 9 4 8 30 27 21 24 6 9 15 14 17 20 16 15 14 19 25 17 18 18 20 20 19 16 17 21 19 18 14 12 18 22 16 15 20 16
15 13 15 12 13 16 18 17 16 14 7 8 31 31 22 16 18 15 22 24 14 18 19 19 23 16 19 18 20 21 23 19 17 18 8 8 11 12 14 22 19 25 22 25 20
14 12 12 12 12 15 16 9 17 14 4 5 7 9 27 10 8 25 19 23 13 20 17 15 21 20 19 22 20 21 23 20 18 20 7 10 4 18 22 15 8 13 19 28 25
14 11 12 13 5 11 9 7 3 4 5 8 6 5 7 14 3 11 33 27 18 17 11 10 14 20 23 23 20 22 13 17 22 11 4 10 5 8 14 19 8 10 22 29 27
15 13 12 14 15 9 9 3 7 2 8 5 6 8 8 12 8 9 27 26 21 17 17 15 16 15 15 20 20 21 13 14 17 8 7 12 11 6 9 15 14 11 26 30 29
17 16 15 12 14 18 9 16 2 6 2 5 4 7 13 11 11 8 18 20 9 7 10 6 19 10 3 5 20 20 11 9 7 7 4 15 9 3 6 10 16 15 26 31 29
18 21 17 17 12 14 20 2 6 6 6 3 4 8 8 7 7 15 9 16 18 12 2 10 9 17 12 8 11 21 16 3 4 3 5 14 7 3 7 10 25 27 32 32 31
17 24 22 22 19 19 17 5 5 4 4 5 5 6 5 5 6 14 14 7 11 18 8 5 8 10 12 14 10 5 11 19 6 8 4 4 4 6 8 7 11 21 29 31 31
26 26 27 23 26 23 6 11 6 6 7 5 9 11 8 11 8 12 12 7 16 17 12 2 5 6 8 12 16 9 11 12 7 6 6 6 9 6 9 8 9 15 23 29 31
26 10 12 26 29 16 7 7 7 16 9 8 11 10 11 9 14 12 9 12 13 15 14 6 6 3 2 10 16 7 6 9 3 2 6 5 1 10 9 12 9 13 27 31 33
18 3 21 28 6 4 7 5 4 9 20 10 13 19 12 12 15 10 13 7 18 14 10 11 4 3 8 3 12 5 10 17 2 2 2 5 2 8 9 8 10 14 29 33 33
16 6 25 35 5 6 6 6 7 3 8 8 8 11 7 7 7 14 14 13 19 11 16 11 5 1 5 8 4 6 5 3 5 3 3 3 4 7 8 8 8 15 27 31 31
10 5 8 18 8 6 10 7 6 16 18 16 14 16 7 8 11 1 10 6 13 16 15 2 4 7 4 6 10 5 4 5 5 1 2 3 6 7 8 9 8 15 23 29 32
9 5 9 5 9 10 5 4 7 5 15 18 8 11 9 7 7 11 12 6 7 13 11 5 5 9 6 18 15 12 11 8 5 4 2 2 8 9 11 11 11 19 25 29 28
11 4 10 2 15 16 15 7 9 6 4 6 12 9 17 10 8 11 10 7 6 6 8 6 5 10 9 6 10 9 12 12 9 5 6 6 5 9 12 20 19 19 22 27 30
12 11 2 4 7 7 6 9 10 12 11 21 13 14 11 13 9 15 18 16 8 6 8 5 3 6 4 3 6 3 8 11 8 8 7 8 7 6 6 7 11 17 22 21 23
Wind_Direction
290 290 294 299 297 288 280 271 262 256 250 237 237 239 242 251 260 259 256 243 243 251 271 264 281 242 235 242 243 248 246 238 233 246 263 255 159 259 244 266 278 277 285 291 24
283 283 290 295 297 294 284 273 265 260 254 246 238 243 243 248 260 254 261 244 244 259 266 269 262 244 233 224 228 233 226 240 243 247 265 265 207 235 291 281 282 279 269 250 259
277 277 285 290 287 284 290 288 284 271 262 257 250 244 243 250 276 272 268 260 249 252 252 254 259 269 247 228 218 227 234 250 241 255 266 269 305 290 278 272 273 276 292 296 294
275 273 278 288 281 281 286 289 290 284 268 257 248 240 232 214 247 159 225 248 253 236 241 247 248 252 254 238 228 232 233 233 259 270 259 247 276 278 271 277 279 289 294 286 286
284 273 269 277 274 282 291 297 294 285 268 251 242 227 204 210 232 239 279 102 25 255 215 227 237 242 244 251 238 242 243 241 241 253 268 240 238 262 269 273 273 277 271 265 257
283 278 262 263 266 275 288 290 285 273 271 250 239 222 206 236 241 236 236 249 280 284 224 230 238 246 268 247 257 254 243 257 264 248 238 261 245 251 256 261 264 269 268 278 270
280 280 263 256 259 266 284 289 285 276 267 256 242 235 233 229 237 225 237 244 252 244 266 232 244 266 249 263 293 251 269 243 245 249 241 234 246 243 261 262 257 260 269 260 230
279 274 269 251 259 258 266 274 268 265 260 260 248 231 247 250 230 235 220 245 247 250 242 245 264 268 265 285 316 282 238 250 239 240 242 232 253 254 262 250 236 227 228 230 243
282 273 271 255 249 251 256 262 256 258 255 253 252 227 257 259 226 225 222 218 224 244 249 243 246 257 264 253 269 237 234 224 243 237 229 228 246 239 258 249 218 244 246 175 170
279 271 267 264 242 245 248 270 270 244 253 232 235 238 247 230 228 226 219 223 237 250 265 226 225 235 220 211 223 224 225 239 221 225 230 232 234 232 273 220 219 246 248 152 153
272 264 258 261 235 235 241 266 273 247 211 196 208 212 143 242 221 212 207 210 222 234 230 227 208 222 218 218 231 256 244 233 241 216 232 233 228 224 234 253 230 213 201 151 157
264 261 250 249 234 233 233 222 216 232 275 230 238 234 231 281 228 215 189 198 207 219 216 232 228 227 229 236 227 235 251 264 239 233 219 231 230 229 230 236 234 226 191 153 152
259 259 247 230 223 229 231 237 254 266 258 212 229 236 230 221 229 213 195 203 206 217 214 217 237 234 239 236 240 227 236 241 244 234 242 227 239 237 225 233 217 234 191 164 158
250 251 227 209 224 230 237 244 261 279 273 210 213 236 221 200 251 227 221 205 223 230 220 235 245 242 235 233 235 239 229 246 246 232 195 206 242 223 226 226 197 184 169 154 160
237 226 218 201 178 185 207 223 190 186 278 122 165 196 212 183 24 225 204 212 226 222 213 226 227 233 232 240 228 246 228 231 250 256 166 193 221 258 194 209 177 193 172 156 162
225 208 197 189 201 211 198 200 139 125 248 157 136 179 177 197 212 312 190 208 226 240 238 245 250 236 237 229 248 262 223 281 240 236 206 209 204 249 174 175 175 183 153 158 162
215 203 198 192 203 218 195 150 125 232 84 183 184 184 215 202 215 224 190 204 204 206 218 231 250 229 148 245 229 221 187 231 226 196 207 194 187 261 91 145 174 166 152 158 163
213 203 188 172 204 186 160 133 226 236 203 117 187 205 217 208 209 216 210 208 220 232 319 222 239 208 176 196 230 207 197 239 186 188 137 160 201 217 144 122 142 155 154 161 166
216 198 191 180 201 176 156 207 231 239 182 179 155 209 204 197 234 208 204 204 214 207 217 243 223 158 184 214 201 174 201 233 278 183 104 163 113 61 105 95 134 144 151 162 169
194 192 203 193 192 178 189 233 226 239 145 187 213 198 191 183 204 201 212 222 217 221 191 210 294 165 201 220 200 213 174 218 225 187 145 185 178 159 150 153 150 152 162 165 171
192 182 211 212 186 176 218 221 251 241 188 197 231 204 224 182 209 199 207 237 192 196 150 180 229 326 232 189 182 175 210 231 251 202 128 131 92 149 148 157 171 163 166 169 175
173 171 169 168 180 193 218 205 231 243 210 242 260 270 211 197 203 215 239 226 177 151 186 184 275 237 255 214 199 179 204 211 240 28 45 112 117 95 107 124 156 176 170 172 175
157 139 177 178 195 204 224 225 225 266 204 211 249 245 251 209 195 208 223 208 161 150 176 172 206 218 342 168 123 204 226 283 296 336 171 82 158 115 106 112 127 156 161 167 171
162 171 157 196 221 211 211 215 220 224 244 241 262 251 237 243 197 242 227 177 171 182 172 358 214 243 280 123 127 178 211 270 233 353 9 78 126 127 126 126 122 144 156 164 168
175 201 175 179 213 232 190 223 209 245 218 198 247 242 253 222 216 237 224 185 164 190 150 234 248 250 33 134 152 162 188 240 265 229 59 176 131 175 168 154 157 159 158 159 169
150 186 168 195 203 209 226 217 208 214 264 227 227 230 233 214 200 210 189 223 177 178 171 224 296 316 72 52 155 165 181 198 225 234 258 291 310 126 87 130 139 161 167 170 178
175 188 152 204 197 195 213 222 223 208 245 250 272 235 273 219 259 233 192 209 151 176 180 167 279 328 46 70 60 352 200 195 207 210 212 218 237 125 109 115 142 163 175 175 176